User: anonymous   Login
Location: Iola
(37.9240°N, 95.4000°W)
Time: 03:08:46
(UTC-06:00)
Language:

Meteor 2-10 Rocket - Orbit

View from above orbital plane
View from above orbital plane
View from above satellite
View from above satellite

Ground track
Ground track

The orbit data is extracted from the following two-line orbital elements,

1 14453U 83109B   17350.91723519 +.00000025 +00000-0 +53805-5 0  9994
2 14453 081.1675 282.4676 0103906 254.9797 103.9864 14.24686222773470
Epoch (UTC): 16 December 2017 22:00:49
Eccentricity: 0.0103906
inclination: 81.1675°
perigee height: 735 km
apogee height: 884 km
right ascension of ascending node: 282.4676°
argument of perigee: 254.9797°
revolutions per day: 14.24686222
mean anomaly at epoch: 103.9864°
orbit number at epoch: 77347

The dashed part of the orbit path shows where the satellite is in the earth's shadow,  

DLR